| time (UTC) | temp F | wind direction | speed MPH | gust MPH | rain 1hr in | rain 24hr in | rain mn in | humidity % | barometer mb |
| 20260504220034 | 81 | 265 | 3.0 | 10.0 | 0.00 | 0.00 | 0.00 | 50 | 1003.0 |
| 20260504214539 | 81 | 270 | 6.0 | 15.0 | 0.00 | 0.00 | 0.00 | 49 | 1002.9 |
| 20260504213052 | 82 | 240 | 2.0 | 8.0 | 0.00 | 0.00 | 0.00 | 49 | 1003.0 |
| 20260504211539 | 81 | 281 | 7.0 | 14.0 | 0.00 | 0.00 | 0.00 | 50 | 1002.9 |
| 20260504210034 | 81 | 229 | 4.0 | 15.0 | 0.00 | 0.00 | 0.00 | 50 | 1003.2 |
| 20260504204535 | 81 | 264 | 4.0 | 18.0 | 0.00 | 0.00 | 0.00 | 51 | 1003.2 |
| 20260504203048 | 80 | 213 | 3.0 | 13.0 | 0.00 | 0.00 | 0.00 | 53 | 1003.2 |
| 20260504201538 | 80 | 260 | 4.0 | 12.0 | 0.00 | 0.00 | 0.00 | 54 | 1003.6 |
| 20260504200035 | 79 | 288 | 3.0 | 12.0 | 0.00 | 0.00 | 0.00 | 55 | 1003.9 |
| 20260504194541 | 77 | 138 | 5.0 | 9.0 | 0.00 | 0.00 | 0.00 | 60 | 1004.2 |
| 20260504193036 | 75 | 251 | 2.0 | 8.0 | 0.00 | 0.00 | 0.00 | 61 | 1004.3 |
| 20260504191538 | 74 | 292 | 1.0 | 3.0 | 0.00 | 0.00 | 0.00 | 64 | 1004.5 |
| 20260504190038 | 71 | 236 | 1.0 | 4.0 | 0.00 | 0.00 | 0.00 | 68 | 1004.7 |
| 20260504184538 | 68 | 38 | 2.0 | 8.0 | 0.00 | 0.00 | 0.00 | 68 | 1004.0 |
| 20260504183039 | 68 | 32 | 1.0 | 5.0 | 0.00 | 0.00 | 0.00 | 68 | 1004.6 |
| 20260504181537 | 69 | 0 | 1.0 | 6.0 | 0.00 | 0.00 | 0.00 | 64 | 1005.5 |
| 20260504180040 | 70 | 8 | 0.0 | 4.0 | 0.00 | 0.00 | 0.00 | 62 | 1005.5 |
| 20260504174543 | 71 | 30 | 0.0 | 5.0 | 0.00 | 0.00 | 0.00 | 61 | 1005.5 |
| 20260504173039 | 71 | 58 | 1.0 | 5.0 | 0.00 | 0.00 | 0.00 | 60 | 1005.7 |
| 20260504171538 | 71 | 273 | 2.0 | 4.0 | 0.00 | 0.00 | 0.00 | 62 | 1006.1 |
| 20260504160209 | 65 | 226 | 4.0 | 11.0 | 0.00 | 0.00 | 0.00 | 70 | 1006.6 |
| 20260504081534 | 57 | 0 | 0.0 | 0.0 | 0.00 | 0.00 | 0.00 | 84 | 1008.7 |
| 20260504044534 | 63 | 0 | 0.0 | 0.0 | 0.00 | 0.00 | 0.00 | 69 | 1008.5 |
| 20260504043036 | 64 | 0 | 0.0 | 0.0 | 0.00 | 0.00 | 0.00 | 67 | 1008.6 |
| 20260504041539 | 66 | 0 | 0.0 | 1.0 | 0.00 | 0.00 | 0.00 | 62 | 1009.1 |
| 20260504040058 | 67 | 313 | 1.0 | 3.0 | 0.00 | 0.00 | 0.00 | 60 | 1009.5 |
| 20260504034533 | 68 | 276 | 2.0 | 7.0 | 0.00 | 0.00 | 0.00 | 61 | 1009.4 |
| 20260504033035 | 68 | 0 | 0.0 | 2.0 | 0.00 | 0.00 | 0.00 | 59 | 1008.8 |
| 20260504031535 | 68 | 254 | 2.0 | 4.0 | 0.00 | 0.00 | 0.00 | 60 | 1009.6 |
| 20260504030035 | 67 | 0 | 0.0 | 1.0 | 0.00 | 0.00 | 0.00 | 61 | 1009.7 |
| 20260504024536 | 68 | 0 | 0.0 | 0.0 | 0.00 | 0.00 | 0.00 | 61 | 1009.5 |
| 20260504023036 | 68 | 0 | 0.0 | 0.0 | 0.00 | 0.00 | 0.00 | 59 | 1009.4 |
| 20260504021536 | 68 | 0 | 0.0 | 0.0 | 0.00 | 0.00 | 0.00 | 59 | 1009.4 |
| 20260504020032 | 69 | 0 | 0.0 | 0.0 | 0.00 | 0.00 | 0.00 | 58 | 1009.3 |
| 20260504014537 | 71 | 0 | 0.0 | 0.0 | 0.00 | 0.00 | 0.00 | 54 | 1009.4 |
| 20260504013038 | 72 | 0 | 0.0 | 1.0 | 0.00 | 0.00 | 0.00 | 52 | 1009.3 |
| 20260504011535 | 72 | 307 | 0.0 | 3.0 | 0.00 | 0.00 | 0.00 | 53 | 1009.2 |
| 20260504010035 | 72 | 0 | 1.0 | 2.0 | 0.00 | 0.00 | 0.00 | 50 | 1009.0 |
| 20260504004543 | 73 | 0 | 0.0 | 3.0 | 0.00 | 0.00 | 0.00 | 50 | 1008.8 |
| 20260504003031 | 74 | 0 | 0.0 | 0.0 | 0.00 | 0.00 | 0.00 | 49 | 1009.0 |
| 20260504001537 | 76 | 0 | 0.0 | 2.0 | 0.00 | 0.00 | 0.00 | 47 | 1008.9 |
| 20260504000034 | 76 | 259 | 3.0 | 5.0 | 0.00 | 0.00 | 0.00 | 44 | 1008.9 |
| 20260503234535 | 77 | 237 | 2.0 | 8.0 | 0.00 | 0.00 | 0.00 | 45 | 1008.9 |
| 20260503233035 | 77 | 244 | 4.0 | 11.0 | 0.00 | 0.00 | 0.00 | 42 | 1009.0 |
| 20260503231534 | 78 | 233 | 5.0 | 15.0 | 0.00 | 0.00 | 0.00 | 41 | 1009.2 |
| 20260503230038 | 79 | 227 | 4.0 | 10.0 | 0.00 | 0.00 | 0.00 | 40 | 1009.2 |
| 20260503224534 | 78 | 219 | 5.0 | 15.0 | 0.00 | 0.00 | 0.00 | 39 | 1009.4 |
| 20260503223036 | 78 | 218 | 5.0 | 17.0 | 0.00 | 0.00 | 0.00 | 39 | 1009.4 |
| 20260503221536 | 78 | 222 | 4.0 | 15.0 | 0.00 | 0.00 | 0.00 | 39 | 1009.6 |